星链-35827(STARLINK-35827)

导读

STARLINK-35869是由美国于2025年11月6日发射的星链系列卫星,星链计划是SpaceX打造的巨型低轨互联网星座,该卫星继承系列技术设计,运行于近地轨道,主要承担为全球提供宽带互联网接入服务的任务,进一步扩充星链星座的卫星规模,提升星座网络覆盖密度与服务稳定性。

基本信息
目录编号:
66353
目录名称:
STARLINK-35869
国际标识:
2025-254F
轨道中心:
EARTH
卫星名称:
星链-35827
卫星全名:
星链-35827(STARLINK-35827)
卫星状态:
在轨 (已飞行302 天)
发射日期:
2025-11-06 UTC
国别 :
美国 (US)
星等 :
--
轨道信息
数据来源 国际轨道数据
星历时间: 2026-09-03T23:32:05+0800
14小时前
查看轨道信息
半长轴: 6840.854km
偏心率: 0.0001606
轨道倾角: 53.158°
近地点辐角 55.276°
升交点赤经 124.311°
平近点角 304.839°
近地点: 461.618km
远地点: 463.816km
周期: 93.848分钟
每日圈数: 15.343954
详细信息
固有亮度:
5
最大亮度:
2.5
卫星平台:
Starlink V1.0
覆盖范围:
全球
运营商:
太空探索技术公司
运营商所在国:
美国
制造商(研发单位):
太空探索技术公司
制造商所在国:
美国
使用方式:
暂无
卫星简介
Starlink 计划是 SpaceX 推出的全球卫星互联网项目,通过发射低轨道卫星,为全球尤其是偏远地区提供高速、低延迟的互联网服务。自 2019 年起,Starlink 已部署数千颗卫星,旨在缩小全球数字鸿沟,推动互联网普及。该项目还为军事、航空等行业提供通信支持,带来广泛经济效益。
2D轨道图
3D轨道图
轨道高度分析图
轨道倾角分析图
轨道综合分析图
查看轨道综合分析图
交会数据列表
事件ID 空间交会对象 最接近时刻(TCA) 交会距离 交会风险概率(CRP) 交会风险指数(CRI) 操作
CDM_260904-171406-580606-635321
2026-09-04T
17:14:27+0000
0.988 km
远距离
1.495097E-5 中风险 0.58
CDM_260830-002706-190506-635321
OBJECT M (61905)
2026-08-30T
00:27:30+0000
1.602 km
极远距离
5.410059E-6 低风险 0.5
CDM_260827-213605-917506-635322
EXO-0 (59175)
2026-08-27T
21:36:20+0000
2.537 km
极远距离
1.701456E-6 低风险 0.4
CDM_260828-102705-343806-635321
2026-08-28T
10:27:05+0000
2.261 km
极远距离
1.700984E-6 低风险 0.4
CDM_260903-025005-171906-635322
2026-09-03T
02:50:00+0000
2.519 km
极远距离
1.414206E-6 低风险 0.38
CDM_260903-110205-228206-635321
2026-09-03T
11:02:58+0000
2.649 km
极远距离
1.284697E-6 低风险 0.37
CDM_260904-162706-580606-635321
2026-09-04T
16:27:33+0000
2.639 km
极远距离
9.498903E-7 极低风险 0.35
CDM_260903-041805-261106-635321
2026-09-03T
04:18:03+0000
2.893 km
极远距离
9.243129E-7 极低风险 0.34